Back to catalog

SL-6 R/B(2)

AliveHEO
NORAD 22744·ROCKET BODY·🇷🇺 Russia

Launched Aug 10, 1993 from Plesetsk Cosmodrome

Loading…

Next Passes (next 24 hours)

TLE

FreshSource: Space-Track

Epoch: Sep 13, 2026, 04:50 UTC

1 22744U 93051D   26256.20199187  .00000231  00000-0  00000-0 0  9991
2 22744  67.9580 289.9965 6221610  68.1982 344.9026  2.05611894247047

Track SL-6 R/B(2) in real time with AllMySat

Download on the App Store